Showing default

SKYKRAFT-1, 55041

Orbit data source: Space-Track

SKYKRAFT-1, 55041 is a payload satellite owned by SkyKraft (AU) in SSO that was launched on Tue, 03 Jan 2023 UTC via an FALCON 9 launch vehicle from the Air Force Eastern Test Range (AFETR). Payloads include a variety of satellites, spacecraft, and rockets equipped with specific instruments for various scientific and technological missions. These include communications satellites like Starlink; space stations such as the ISS; scientific satellites like the Hubble; Earth observation satellites from companies like Planet Labs, Umbra, and HawkEye 360; GPS; miniature CubeSats for education and research; and military/defense satellites.

Loading next visibility...
SKYKRAFT-1 details
Identifier
55041, 2023-001AJ
Orbit
SSO
Last TLE update5 hours ago
Origin
Flag of AUSkyKraft (AU / AUS)
ManufacturerSkyKraft
MissionNon-operational Commercial Technology
Bus & MotorSKYKRAFT CARRIER, AOCS
Mass~100 kg wet, ~100 kg dry
Launch date (UTC)
2023-01-03 (2 years ago)
Launch vehicle
FALCON 9
Launch site
Air Force Eastern Test Range (AFETR)
Object type
Payload
Rocket body
Debris
Shape & HBRBox, 0.6 m
Radar Cross Section0.065 m², Medium (>0.1 m² and < 1m²)

Expand to show TLE details & history

TLE from 5 hours ago
0 SKYKRAFT-1
1 55041U 23001AJ  25036.15315877  .00021398  00000-0  65574-3 0  9997
2 55041  97.3912 100.1988 0010170  73.6171 286.6189 15.33760405116180
Epoch: 2025-02-05T03:40Z
Definitive object data (Epoch: 2025-02-05T03:40:32.917Z)
Latitude-0.00003°
Longitude-90.48654°
Altitude465.73 km
Speed7.635 km/s
True Right ascension06h 40m 47s
True Declination0° 00' 00"
Sunlit
Object was in full shadow at TLE epoch
Visualization TLE readout
Latitude72.9713°
Longitude114.63848°
Altitude471.276 km
Speed7.64 km/s
Apparent Right ascension22h 09m 23s
Apparent Declination20° 23' 55"
Sunlit
Object is in daylight
Visualization observer readout
Local Sidereal Time10:52:24
Azimuth11.518° NNE
Elevation-28.856°
Doppler factor1
Orbital elements
Apogee altitude468.508 km
Perigee altitude454.596 km
Semi-major axis6,839.689 km
Eccentricity0.001017
Inclination97.3912°
RAAN100.1988°
Arg. of periapsis73.6171°
True anomaly286.50719°
Mean anomaly286.6189°
Eccentric anomaly286.56305°
Mean motion3.83697 °/min
BSTAR0.00065574
Orbital period93.82 mins
Loading maneuver chart data...
Loading historical data...
Loading historical data...
Loading historical data...
Loading historical data...
Loading historical data...
Loading historical data...
Loading historical data...

SKYKRAFT-1 Visibility forecast

Observer location: undefined°, undefined

Span
Click to sort rows by Start time (UTC) header in descending order
Start Az.
Max El. time (UTC)
Max El. Az.
Max El.
End time (UTC)
End Az.
6 mins2025-02-05 16:45:50.109Z24.43° NE2025-02-05 16:48:50.109Z114.869° SE38.091°2025-02-05 16:51:50.109Z177.445° S
|